Wichita Falls, TX

3:28 PM CST on November 23, 2017 (GMT -0600)
Sheppard Air Force Base-Wichita Falls Municipal

Weather History for KSPS - January, 2013

Change the Weather History Date:

Tuesday, January 8, 2013

  Actual Average Record
Temperature  
Mean Temperature 45 °F 42 °F  
Max Temperature 51 °F 54 °F 87 °F (1969)
Min Temperature 39 °F 30 °F 2 °F (1988)
Degree Days  
Heating Degree Days 20 24  
Month to date heating degree days 192  
Since 1 July heating degree days 1389  
Moisture  
Dew Point 41 °F    
Average Humidity 82    
Maximum Humidity 97    
Minimum Humidity 59    
Precipitation  
Precipitation 0.08 in 0.04 in 1.08 in (1939)
Month to date precipitation 0.30  
Year to date precipitation 0.30  
Snow  
Snow 0.00 in 0.00 in - ()
Month to date snowfall 0.4  
Since 1 July snowfall 1.7  
Snow Depth -    
Sea Level Pressure  
Sea Level Pressure 30.05 in    
Wind  
Wind Speed 6 mph (ESE)    
Max Wind Speed 13 mph    
Max Gust Speed -    
Visibility 8 miles    
Events Rain    
T = Trace of Precipitation, MM = Missing Value Source: NWS Daily Summary

Daily Weather History Graph

Daily Weather History Graph

Search for Another Location

Airport or City:

Trip Planner

Search our weather history database for the weather conditions in past years. The results will help you decide how hot, cold, wet, or windy it might be!

Date:

Astronomy

Jan. 08, 2013 Rise Set
Actual Time 7:40 AM CST 5:41 PM CST
Civil Twilight 7:12 AM CST 6:09 PM CST
Nautical Twilight 6:41 AM CST 6:40 PM CST
Astronomical Twilight 6:11 AM CST 7:10 PM CST
Moon 4:15 AM CST (1/8) 2:45 PM CST (1/8)
Length of Visible Light 10h 56m
Length of Day
10h 01m
Waning Crescent, 13% of the Moon is Illuminated
Jan 8
Waning Crescent
Jan 11
New
Jan 18
First Quarter
Jan 26
Full
Feb 3
Last Quarter

Hourly Weather History & Observations

Time (CST) Temp. Windchill Dew Point Humidity Pressure Visibility Wind Dir Wind Speed Gust Speed Precip Events Conditions
12:52 AM 39.9 °F 35.1 °F 30.9 °F 70% 30.08 in 10.0 mi SSE 6.9 mph - N/A   Mostly Cloudy
1:52 AM 39.0 °F 33.4 °F 32.0 °F 76% 30.06 in 10.0 mi SE 8.1 mph - N/A   Overcast
2:52 AM 37.0 °F 31.6 °F 30.9 °F 79% 30.06 in 10.0 mi SE 6.9 mph - N/A   Partly Cloudy
3:52 AM 36.0 °F 31.1 °F 30.9 °F 82% 30.06 in 10.0 mi SE 5.8 mph - N/A   Mostly Cloudy
4:52 AM 39.0 °F - 33.1 °F 79% 30.05 in 10.0 mi Calm Calm - N/A   Overcast
5:52 AM 39.2 °F - 33.8 °F 81% 30.04 in 10.0 mi Calm Calm - N/A   Overcast
6:52 AM 41.0 °F 39.0 °F 33.8 °F 76% 30.04 in 10.0 mi ESE 3.5 mph - N/A   Overcast
7:52 AM 42.1 °F 40.2 °F 34.0 °F 73% 30.06 in 10.0 mi ESE 3.5 mph - N/A   Overcast
8:52 AM 44.1 °F 42.5 °F 35.1 °F 71% 30.08 in 10.0 mi SE 3.5 mph - N/A   Overcast
9:52 AM 46.9 °F - 37.0 °F 68% 30.09 in 10.0 mi SSE 5.8 mph - N/A   Overcast
10:52 AM 50.0 °F - 37.9 °F 63% 30.08 in 10.0 mi SSE 4.6 mph - N/A   Overcast
11:52 AM 48.9 °F - 39.0 °F 69% 30.06 in 10.0 mi South 10.4 mph - N/A   Overcast
12:14 PM 48.2 °F - 39.2 °F 71% 30.04 in 10.0 mi SSE 8.1 mph - 0.00 in   Light Drizzle
12:52 PM 48.9 °F - 42.1 °F 77% 30.03 in 7.0 mi South 9.2 mph - 0.00 in   Light Drizzle
12:59 PM 48.2 °F - 42.8 °F 82% 30.02 in 3.0 mi SSE 12.7 mph - 0.00 in Rain Light Rain
1:05 PM 46.4 °F 42.9 °F 44.6 °F 93% 30.02 in 1.8 mi South 6.9 mph - 0.02 in Rain Light Rain
1:14 PM 46.4 °F 42.9 °F 44.6 °F 93% 30.02 in 2.5 mi SSE 6.9 mph - 0.04 in Rain Light Rain
1:28 PM 48.2 °F - 46.4 °F 93% 30.01 in 5.0 mi South 4.6 mph - 0.07 in Rain Light Rain
1:52 PM 50.0 °F - 46.0 °F 86% 30.01 in 7.0 mi SE 5.8 mph - 0.07 in Rain Light Rain
2:52 PM 50.0 °F - 46.0 °F 86% 30.00 in 8.0 mi East 5.8 mph - 0.00 in   Overcast
3:52 PM 51.1 °F - 46.9 °F 86% 30.00 in 8.0 mi NE 6.9 mph - N/A   Overcast
4:52 PM 50.0 °F - 46.0 °F 86% 30.01 in 5.0 mi NE 5.8 mph - N/A   Mostly Cloudy
5:03 PM 50.0 °F - 46.4 °F 87% 30.02 in 5.0 mi NNE 6.9 mph - N/A   Overcast
5:52 PM 48.9 °F - 46.0 °F 90% 30.03 in 5.0 mi North 10.4 mph - N/A   Overcast
6:52 PM 48.0 °F - 45.0 °F 89% 30.06 in 5.0 mi NNE 8.1 mph - N/A   Overcast
7:52 PM 46.9 °F - 44.1 °F 90% 30.06 in 8.0 mi NNE 9.2 mph - N/A   Overcast
8:52 PM 48.0 °F - 43.0 °F 83% 30.07 in 10.0 mi NNE 8.1 mph - N/A   Overcast
9:52 PM 48.0 °F - 43.0 °F 83% 30.09 in 10.0 mi East 8.1 mph - N/A   Overcast
10:52 PM 46.9 °F - 44.1 °F 90% 30.11 in 8.0 mi ENE 6.9 mph - N/A   Overcast
11:14 PM 46.4 °F 41.9 °F 44.6 °F 93% 30.11 in 8.0 mi ENE 9.2 mph - N/A   Overcast
11:52 PM 46.9 °F - 46.0 °F 97% 30.12 in 8.0 mi ENE 6.9 mph - N/A   Overcast